Location: Passau
(48.5830°N, 13.4830°E)
Time: 21:38:45
(UTC+02:00)

S-56A Canister/Altair - Pass Details

Date: 25 May 2024
Orbit: 637 x 2489 km, 38.9° (Epoch: 16 June)

Event Time Altitude Azimuth Distance (km) Brightness Sun altitude
Rises 05:25:42 0° 213° (SSW) 6,120 11.5 0.8°
Reaches altitude 10° 05:30:35 10° 204° (SSW) 5,006 11.2 1.5°
Maximum altitude 05:41:40 30° 151° (SSE) 3,212 10.8 3.1°
Drops below altitude 10° 05:50:25 10° 97° (E) 3,926 12.2 4.4°
Sets 05:53:41 0° 87° (E) 4,648 13.0 4.9°
